TimeAKST,TemperatureF,Dew PointF,Humidity,Sea Level PressureIn,VisibilityMPH,Wind Direction,Wind SpeedMPH,Gust SpeedMPH,PrecipitationIn,Events,Conditions,WindDirDegrees,DateUTC
12:16 AM,30.2,28.4,93,29.84,0.5,Calm,Calm,-,N/A,,Overcast,0,2013-01-05 09:16:00
12:36 AM,28.4,28.4,100,29.83,0.5,Calm,Calm,-,N/A,,Overcast,0,2013-01-05 09:36:00
1:16 AM,28.4,28.4,100,29.82,0.8,Calm,Calm,-,N/A,,Overcast,0,2013-01-05 10:16:00
1:36 AM,28.4,26.6,93,29.81,10.0,Calm,Calm,-,N/A,,Overcast,0,2013-01-05 10:36:00
1:56 AM,28.4,28.4,100,29.80,10.0,Calm,Calm,-,N/A,,Overcast,0,2013-01-05 10:56:00
2:16 AM,30.2,28.4,93,29.79,9.0,Calm,Calm,-,N/A,,Overcast,0,2013-01-05 11:16:00
2:36 AM,28.4,26.6,93,29.79,10.0,Calm,Calm,-,N/A,,Overcast,0,2013-01-05 11:36:00
3:16 AM,28.4,26.6,93,29.76,8.0,Calm,Calm,-,N/A,,Overcast,0,2013-01-05 12:16:00
3:36 AM,28.4,26.6,93,29.75,10.0,Calm,Calm,-,N/A,,Overcast,0,2013-01-05 12:36:00
4:16 AM,28.4,28.4,100,29.72,10.0,Calm,Calm,-,N/A,,Overcast,0,2013-01-05 13:16:00
4:36 AM,28.4,26.6,93,29.72,10.0,Calm,Calm,-,N/A,,Overcast,0,2013-01-05 13:36:00
4:56 AM,28.4,26.6,93,29.71,1.2,Calm,Calm,-,N/A,,Overcast,0,2013-01-05 13:56:00
5:36 AM,28.4,26.6,93,29.69,8.0,Calm,Calm,-,N/A,,Overcast,0,2013-01-05 14:36:00
5:56 AM,28.4,26.6,93,29.68,5.0,Calm,Calm,-,N/A,,Overcast,0,2013-01-05 14:56:00
6:16 AM,28.4,26.6,93,29.66,5.0,Calm,Calm,-,N/A,,Overcast,0,2013-01-05 15:16:00
6:56 AM,28.4,24.8,86,29.65,8.0,Calm,Calm,-,N/A,,Overcast,0,2013-01-05 15:56:00
7:16 AM,28.4,24.8,86,29.64,8.0,Calm,Calm,-,N/A,,Overcast,0,2013-01-05 16:16:00
7:36 AM,28.4,26.6,93,29.63,8.0,Calm,Calm,-,N/A,,Overcast,0,2013-01-05 16:36:00
7:56 AM,28.4,28.4,100,29.62,8.0,Calm,Calm,-,N/A,,Overcast,0,2013-01-05 16:56:00
8:16 AM,28.4,26.6,93,29.62,8.0,Calm,Calm,-,N/A,,Overcast,0,2013-01-05 17:16:00
8:36 AM,32.0,30.2,93,29.61,8.0,Calm,Calm,-,N/A,,Overcast,0,2013-01-05 17:36:00
8:56 AM,30.2,28.4,93,29.61,10.0,Calm,Calm,-,N/A,,Overcast,0,2013-01-05 17:56:00
9:16 AM,30.2,28.4,93,29.60,10.0,Calm,Calm,-,N/A,,Overcast,0,2013-01-05 18:16:00
9:36 AM,30.2,26.6,86,29.60,10.0,Calm,Calm,-,N/A,,Overcast,0,2013-01-05 18:36:00
9:56 AM,30.2,26.6,86,29.59,9.0,Calm,Calm,-,N/A,,Overcast,0,2013-01-05 18:56:00
10:36 AM,30.2,30.2,100,29.59,9.0,Calm,Calm,-,N/A,,Overcast,0,2013-01-05 19:36:00
10:56 AM,30.2,26.6,86,29.58,8.0,Calm,Calm,-,N/A,,Overcast,0,2013-01-05 19:56:00
11:16 AM,30.2,28.4,93,29.57,8.0,Calm,Calm,-,N/A,,Overcast,0,2013-01-05 20:16:00
11:36 AM,32.0,30.2,93,29.57,8.0,Calm,Calm,-,N/A,,Overcast,0,2013-01-05 20:36:00
11:56 AM,32.0,30.2,93,29.56,5.0,Calm,Calm,-,N/A,,Overcast,0,2013-01-05 20:56:00
12:16 PM,30.2,28.4,93,29.55,5.0,Calm,Calm,-,N/A,,Overcast,0,2013-01-05 21:16:00
12:36 PM,30.2,28.4,93,29.55,5.0,Calm,Calm,-,N/A,,Overcast,0,2013-01-05 21:36:00
12:56 PM,32.0,28.4,87,29.54,6.0,Calm,Calm,-,N/A,,Overcast,0,2013-01-05 21:56:00
1:56 PM,32.0,30.2,93,29.52,8.0,Calm,Calm,-,N/A,,Overcast,0,2013-01-05 22:56:00
2:36 PM,32.0,28.4,87,29.51,8.0,Calm,Calm,-,N/A,,Overcast,0,2013-01-05 23:36:00
2:56 PM,32.0,30.2,93,29.51,5.0,Calm,Calm,-,N/A,,Overcast,0,2013-01-05 23:56:00
3:16 PM,32.0,30.2,93,29.50,1.5,Calm,Calm,-,N/A,,Overcast,0,2013-01-06 00:16:00
3:36 PM,33.8,30.2,87,29.49,1.5,Calm,Calm,-,N/A,,Overcast,0,2013-01-06 00:36:00
3:56 PM,33.8,28.4,81,29.49,1.5,Calm,Calm,-,N/A,,Overcast,0,2013-01-06 00:56:00
4:16 PM,33.8,30.2,87,29.48,1.5,Calm,Calm,-,0.01,,Overcast,0,2013-01-06 01:16:00
4:36 PM,33.8,28.4,81,29.47,1.5,Calm,Calm,-,0.01,,Overcast,0,2013-01-06 01:36:00
5:16 PM,32.0,30.2,93,29.46,3.0,Calm,Calm,-,N/A,,Overcast,0,2013-01-06 02:16:00
5:36 PM,32.0,30.2,93,29.45,3.0,Calm,Calm,-,N/A,,Overcast,0,2013-01-06 02:36:00
5:56 PM,33.8,30.2,87,29.45,4.0,Calm,Calm,-,N/A,,Overcast,0,2013-01-06 02:56:00
6:16 PM,33.8,28.4,81,29.44,4.0,Calm,Calm,-,N/A,,Overcast,0,2013-01-06 03:16:00
6:36 PM,32.0,30.2,93,29.44,4.0,Calm,Calm,-,N/A,,Overcast,0,2013-01-06 03:36:00
6:56 PM,32.0,28.4,87,29.44,4.0,Calm,Calm,-,0.01,,Overcast,0,2013-01-06 03:56:00
7:16 PM,32.0,30.2,93,29.43,4.0,Calm,Calm,-,N/A,,Overcast,0,2013-01-06 04:16:00
7:36 PM,30.2,28.4,93,29.42,4.0,Calm,Calm,-,N/A,,Overcast,0,2013-01-06 04:36:00
7:56 PM,30.2,28.4,93,29.41,6.0,Calm,Calm,-,N/A,,Overcast,0,2013-01-06 04:56:00
8:16 PM,30.2,30.2,100,29.41,6.0,Calm,Calm,-,N/A,,Overcast,0,2013-01-06 05:16:00
8:56 PM,32.0,30.2,93,29.41,4.0,Calm,Calm,-,N/A,,Overcast,0,2013-01-06 05:56:00
9:16 PM,30.2,28.4,93,29.42,4.0,Calm,Calm,-,0.01,,Overcast,0,2013-01-06 06:16:00
9:36 PM,32.0,28.4,87,29.42,4.0,Calm,Calm,-,0.01,,Overcast,0,2013-01-06 06:36:00
9:56 PM,32.0,30.2,93,29.42,4.0,Calm,Calm,-,0.02,,Overcast,0,2013-01-06 06:56:00
10:16 PM,32.0,32.0,100,29.44,2.5,Calm,Calm,-,N/A,,Overcast,0,2013-01-06 07:16:00
10:36 PM,32.0,30.2,93,29.45,2.0,Calm,Calm,-,0.01,,Overcast,0,2013-01-06 07:36:00
11:16 PM,33.8,30.2,87,29.47,2.5,Calm,Calm,-,N/A,,Overcast,0,2013-01-06 08:16:00
11:36 PM,32.0,30.2,93,29.49,9.0,Calm,Calm,-,N/A,,Overcast,0,2013-01-06 08:36:00